******************************************************************************* JPL/HORIZONS 341843 (2008 EV5) 2025-Dec-12 17:45:44 Rec #: 341843 (+COV) Soln.date: 2025-Jun-02_06:18:54 # obs: 1479 (2008-2025) IAU76/J2000 helio. ecliptic osc. elements (au, days, deg., period=Julian yrs): EPOCH= 2458018.5 ! 2017-Sep-22.00 (TDB) Residual RMS= .23868 EC= .08347582635371757 QR= .8783097379196911 TP= 2458139.8898833208 OM= 93.38931941646368 W= 234.8106377716295 IN= 7.436815392614233 A= .9583050433088308 MA= 232.4645534080714 ADIST= 1.03830034869797 PER= .93813 N= 1.050626651 ANGMOM= .016780887 DAN= .9997200000000001 DDN= .90795 L= 327.9716886 B= -6.0720601 MOID= .0132834 TP= 2018-Jan-21.3898833208 Asteroid physical parameters (km, seconds, rotational period in hours): GM= n.a. RAD= .200 ROTPER= 3.725 H= 20.05 G= .150 B-V= n.a. ALBEDO= .137 STYP= n.a. Asteroid non-gravitational force model (AMRAT= m^2/kg;A1,A2,A3=au/d^2;R0=au): AMRAT= 0. A1= 0. A2= -3.420784423724E-14 A3= 0. Non-standard or simulated/proxy model: ALN= 1. NK= 0. NM= 2. NN= 5.093 R0= 1. ASTEROID comments: 1: soln ref.= JPL#169, PHA OCC=0 radar( 8 delay, 0 Dop.) 2: source=ORB; Nongravitational accels. using nonstandard g(r) = (1 au/ r)^2 ******************************************************************************* ******************************************************************************* Ephemeris / WWW_USER Fri Dec 12 17:45:44 2025 Pasadena, USA / Horizons ******************************************************************************* Target body name: 341843 (2008 EV5) {source: JPL#169} Center body name: Earth (399) {source: DE441} Center-site name: GEOCENTRIC ******************************************************************************* Start time : A.D. 2023-Dec-20 06:52:00.0000 UT Stop time : A.D. 2023-Dec-21 00:00:00.0000 UT Step-size : 1440 minutes ******************************************************************************* Target pole/equ : undefined Target radii : 0.2 km Center geodetic : 0.0, 0.0, -6378.137 {E-lon(deg),Lat(deg),Alt(km)} Center cylindric: 0.0, 0.0, 0.0 {E-lon(deg),Dxy(km),Dz(km)} Center pole/equ : ITRF93 {East-longitude positive} Center radii : 6378.137, 6378.137, 6356.752 km {Equator_a, b, pole_c} Target primary : Sun Vis. interferer : MOON (R_eq= 1737.400) km {source: DE441} Rel. light bend : Sun {source: DE441} Rel. lght bnd GM: 1.3271E+11 km^3/s^2 Small-body perts: Yes {source: SB441-N16} Atmos refraction: NO (AIRLESS) RA format : HMS Time format : CAL Calendar mode : Mixed Julian/Gregorian EOP file : eop.251212.p260310 EOP coverage : DATA-BASED 1962-JAN-20 TO 2025-DEC-12. PREDICTS-> 2026-MAR-09 Units conversion: 1 au= 149597870.700 km, c= 299792.458 km/s, 1 day= 86400.0 s Table cut-offs 1: Elevation (-90.0deg=NO ),Airmass (>38.000=NO), Daylight (NO ) Table cut-offs 2: Solar elongation ( 0.0,180.0=NO ),Local Hour Angle( 0.0=NO ) Table cut-offs 3: RA/DEC angular rate ( 0.0=NO ) ******************************************************************************* Initial IAU76/J2000 heliocentric ecliptic osculating elements (au, days, deg.): EPOCH= 2458018.5 ! 2017-Sep-22.00 (TDB) Residual RMS= .23868 EC= .08347582635371757 QR= .8783097379196911 TP= 2458139.8898833208 OM= 93.38931941646368 W= 234.8106377716295 IN= 7.436815392614233 Equivalent ICRF heliocentric cartesian coordinates (au, au/d): X=-9.744301912390119E-01 Y=-2.681149874622611E-01 Z= 2.413654652771510E-02 VX= 4.874458602985778E-03 VY=-1.437847056405960E-02 VZ=-6.792424728171705E-03 Asteroid physical parameters (km, seconds, rotational period in hours): GM= n.a. RAD= .200 ROTPER= 3.725 H= 20.05 G= .150 B-V= n.a. ALBEDO= .137 STYP= n.a. Asteroid non-gravitational force model (AMRAT= m^2/kg;A1,A2,A3=au/d^2;R0=au): AMRAT= 0. A1= 0. A2= -3.420784423724E-14 A3= 0. Non-standard or simulated/proxy model: ALN= 1. NK= 0. NM= 2. NN= 5.093 R0= 1. ******************************************************************************* Date__(UT)__HR:MN delta deldot RNG_3sigma RNGRT_3sig ************************************************************************** $$SOE 2023-Dec-20 06:52 0.04225878374817 0.0002237 0.2924 0.0000007 $$EOE ******************************************************************************* Column meaning: TIME Times PRIOR to 1962 are UT1, a mean-solar time closely related to the prior but now-deprecated GMT. Times AFTER 1962 are in UTC, the current civil or "wall-clock" time-scale. UTC is kept within 0.9 seconds of UT1 using integer leap-seconds for 1972 and later years. Conversion from the internal Barycentric Dynamical Time (TDB) of solar system dynamics to the non-uniform civil UT time-scale requested for output has not been determined for UTC times after the next July or January 1st. Therefore, the last known leap-second is used as a constant over future intervals. Time tags refer to the UT time-scale conversion from TDB on Earth regardless of observer location within the solar system, although clock rates may differ due to the local gravity field and no analog to "UT" may be defined for that location. Any 'b' symbol in the 1st-column denotes a B.C. date. First-column blank (" ") denotes an A.D. date. CALENDAR SYSTEM Mixed calendar mode was active such that calendar dates after AD 1582-Oct-15 (if any) are in the modern Gregorian system. Dates prior to 1582-Oct-5 (if any) are in the Julian calendar system, which is automatically extended for dates prior to its adoption on 45-Jan-1 BC. The Julian calendar is useful for matching historical dates. The Gregorian calendar more accurately corresponds to the Earth's orbital motion and seasons. A "Gregorian-only" calendar mode is available if such physical events are the primary interest. NOTE: "n.a." in output means quantity "not available" at the print-time. STATISTICAL UNCERTAINTIES Output includes formal +/- 3 standard-deviation statistical orbit uncertainty quantities. There is a 99.7% (1-D) or 98.9% (2-D) chance the actual value is within given bounds. These statistical calculations assume observational data errors are random. If there are systematic biases (such as timing, reduction or star-catalog errors), results can be optimistic. Because the epoch covariance is mapped using linearized variational partial derivatives, results can also be optimistic for times far from the solution epoch, particularly for objects having close planetary encounters. 'delta deldot' = Apparent range ("delta", light-time aberrated) and range-rate ("delta-dot") of the target center relative to the observer. A positive "deldot" means the target center is moving away from the observer, negative indicates movement toward the observer. Units: AU and KM/S 'RNG_3sigma RNGRT_3sig' = Range and range rate (radial velocity) formal 3-standard-deviation uncertainties. Units: KM, KM/S Computations by ... Solar System Dynamics Group, Horizons On-Line Ephemeris System 4800 Oak Grove Drive, Jet Propulsion Laboratory Pasadena, CA 91109 USA General site: https://ssd.jpl.nasa.gov/ Mailing list: https://ssd.jpl.nasa.gov/email_list.html System news : https://ssd.jpl.nasa.gov/horizons/news.html User Guide : https://ssd.jpl.nasa.gov/horizons/manual.html Connect : browser https://ssd.jpl.nasa.gov/horizons/app.html#/x API https://ssd-api.jpl.nasa.gov/doc/horizons.html command-line telnet ssd.jpl.nasa.gov 6775 e-mail/batch https://ssd.jpl.nasa.gov/ftp/ssd/horizons_batch.txt scripts https://ssd.jpl.nasa.gov/ftp/ssd/SCRIPTS Author : Jon.D.Giorgini@jpl.nasa.gov ******************************************************************************* !$$SOF COMMAND = '2008 EV5' QUANTITIES = '20,39' START_TIME = '2023-12-20 06:52' STEP_SIZE = '1 day' STOP_TIME = '2023-12-21'